When you browse on this site, cookies collect data to enhance your experience and personalize the content and advertising you see.
Visit our Privacy Policy to learn more. By continuing to use the site, you agree to this use of cookies and data.
  • In Hungary
  • List of Countries
  • For 7 days
  • Water Temperature
  • Weather Map
  • News
  • Weather Widgets
  • user-avatar
    Login

    Hourly Weather Polynyanka

    Today, 21 January, Tuesday

    Time Temperature Precipitation Wind Pressure Humidity
    00:00 -28°C° 0 mm 5 mps 753 mmHg 89%
    01:00 -29°C° 0 mm 5 mps 753 mmHg 89%
    02:00 -29°C° 0 mm 5 mps 752 mmHg 89%
    03:00 -29°C° 0 mm 5 mps 752 mmHg 90%
    04:00 -29°C° 0 mm 5 mps 752 mmHg 89%
    05:00 -29°C° 0 mm 4 mps 752 mmHg 89%
    06:00 -27°C° 0 mm 4 mps 752 mmHg 89%
    07:00 -27°C° 0 mm 4 mps 752 mmHg 91%
    08:00 -27°C° 0 mm 4 mps 751 mmHg 92%
    09:00 -25°C° 0 mm 3 mps 751 mmHg 93%
    10:00 -25°C° 0 mm 3 mps 752 mmHg 93%
    11:00 -24°C° 0 mm 3 mps 752 mmHg 94%
    12:00 -21°C° 0 mm 2 mps 752 mmHg 94%
    13:00 -21°C° 0 mm 2 mps 752 mmHg 94%
    14:00 -21°C° 0 mm 2 mps 752 mmHg 94%
    15:00 -20°C° 0 mm 2 mps 752 mmHg 95%
    16:00 -21°C° 0 mm 2 mps 753 mmHg 96%
    17:00 -23°C° 0 mm 2 mps 753 mmHg 96%
    18:00 -24°C° 0 mm 2 mps 753 mmHg 97%
    19:00 -22°C° 0 mm 1 mps 754 mmHg 97%
    20:00 -22°C° 0 mm 1 mps 754 mmHg 97%
    21:00 -23°C° 0 mm 1 mps 754 mmHg 97%
    22:00 -23°C° 0 mm 1 mps 754 mmHg 96%
    23:00 -23°C° 0 mm 1 mps 754 mmHg 96%

    Tomorrow, 22 January, Wednesday

    Time Temperature Precipitation Wind Pressure Humidity
    00:00 -23°C° 0 mm 1 mps 754 mmHg 95%
    01:00 -23°C° 0 mm 1 mps 754 mmHg 95%
    02:00 -23°C° 0 mm 1 mps 754 mmHg 94%
    03:00 -23°C° 0 mm 1 mps 754 mmHg 93%
    04:00 -23°C° 0 mm 1 mps 754 mmHg 93%
    05:00 -26°C° 0 mm 2 mps 754 mmHg 93%
    06:00 -26°C° 0 mm 2 mps 754 mmHg 93%
    07:00 -26°C° 0 mm 2 mps 754 mmHg 93%
    08:00 -26°C° 0 mm 2 mps 754 mmHg 94%
    09:00 -26°C° 0 mm 2 mps 753 mmHg 94%
    10:00 -24°C° 0 mm 2 mps 753 mmHg 92%
    11:00 -21°C° 0 mm 2 mps 753 mmHg 90%
    12:00 -21°C° 0 mm 3 mps 752 mmHg 87%
    13:00 -21°C° 0 mm 3 mps 752 mmHg 90%
    14:00 -19°C° 0 mm 3 mps 751 mmHg 92%
    15:00 -19°C° 0 mm 3 mps 751 mmHg 95%
    16:00 -18°C° 0 mm 3 mps 751 mmHg 94%
    17:00 -18°C° 0 mm 3 mps 751 mmHg 94%
    18:00 -18°C° 0 mm 3 mps 750 mmHg 94%
    19:00 -17°C° 0 mm 3 mps 750 mmHg 94%
    20:00 -16°C° 0 mm 3 mps 750 mmHg 94%
    21:00 -16°C° 0 mm 3 mps 749 mmHg 94%
    22:00 -15°C° 0 mm 3 mps 749 mmHg 94%
    23:00 -15°C° 0 mm 3 mps 749 mmHg 94%

    Day after tomorrow, 23 January, Thursday

    Time Temperature Precipitation Wind Pressure Humidity
    00:00 -15°C° 0 mm 3 mps 749 mmHg 94%
    01:00 -15°C° 0 mm 3 mps 749 mmHg 94%
    02:00 -15°C° 0 mm 3 mps 749 mmHg 93%
    03:00 -16°C° 0 mm 4 mps 749 mmHg 93%
    04:00 -15°C° 0 mm 4 mps 749 mmHg 92%
    05:00 -15°C° 0 mm 4 mps 749 mmHg 92%
    06:00 -15°C° 0 mm 4 mps 749 mmHg 92%
    07:00 -15°C° 0 mm 4 mps 748 mmHg 92%
    08:00 -15°C° 0 mm 4 mps 748 mmHg 92%
    09:00 -15°C° 0 mm 4 mps 748 mmHg 92%
    10:00 -14°C° 0.1 mm 5 mps 748 mmHg 91%
    11:00 -13°C° 0.1 mm 5 mps 747 mmHg 91%
    12:00 -12°C° 0.1 mm 5 mps 747 mmHg 90%
    13:00 -11°C° 0.1 mm 5 mps 747 mmHg 90%
    14:00 -11°C° 0.1 mm 5 mps 746 mmHg 90%
    15:00 -10°C° 0.1 mm 5 mps 745 mmHg 90%
    16:00 -10°C° 0.1 mm 5 mps 745 mmHg 90%
    17:00 -8°C° 0.1 mm 5 mps 745 mmHg 90%
    18:00 -8°C° 0.1 mm 5 mps 744 mmHg 91%
    19:00 -8°C° 0.2 mm 5 mps 744 mmHg 91%
    20:00 -8°C° 0.2 mm 6 mps 743 mmHg 92%
    21:00 -6°C° 0.2 mm 6 mps 743 mmHg 92%
    22:00 -6°C° 0.1 mm 6 mps 742 mmHg 92%
    23:00 -6°C° 0.1 mm 6 mps 742 mmHg 92%

    24 January, Friday

    Time Temperature Precipitation Wind Pressure Humidity
    00:00 -6°C° 0.1 mm 6 mps 742 mmHg 92%
    01:00 -5°C° 0.2 mm 6 mps 742 mmHg 92%
    02:00 -5°C° 0.2 mm 6 mps 742 mmHg 92%
    03:00 -5°C° 0.2 mm 6 mps 742 mmHg 92%
    04:00 -5°C° 0.1 mm 6 mps 742 mmHg 91%
    05:00 -4°C° 0.1 mm 5 mps 743 mmHg 90%
    06:00 -4°C° 0.1 mm 5 mps 743 mmHg 88%
    07:00 -4°C° 0.1 mm 5 mps 743 mmHg 90%
    08:00 -4°C° 0.1 mm 5 mps 743 mmHg 91%
    09:00 -5°C° 0.1 mm 5 mps 743 mmHg 92%
    10:00 -4°C° 0.1 mm 5 mps 743 mmHg 93%
    11:00 -4°C° 0.1 mm 5 mps 744 mmHg 93%
    12:00 -4°C° 0.1 mm 5 mps 744 mmHg 93%
    13:00 -4°C° 0.2 mm 5 mps 743 mmHg 93%
    14:00 -4°C° 0.2 mm 5 mps 743 mmHg 92%
    15:00 -4°C° 0.2 mm 5 mps 743 mmHg 92%
    16:00 -4°C° 0.3 mm 5 mps 743 mmHg 93%
    17:00 -3°C° 0.3 mm 4 mps 743 mmHg 93%
    18:00 -4°C° 0.3 mm 4 mps 743 mmHg 94%
    19:00 -4°C° 0.1 mm 4 mps 743 mmHg 94%
    20:00 -4°C° 0.1 mm 3 mps 744 mmHg 94%
    21:00 -4°C° 0.1 mm 3 mps 744 mmHg 94%
    22:00 -5°C° 0 mm 3 mps 744 mmHg 95%
    23:00 -4°C° 0 mm 2 mps 744 mmHg 95%

    25 January, Saturday

    Time Temperature Precipitation Wind Pressure Humidity
    00:00 -4°C° 0 mm 2 mps 744 mmHg 96%
    01:00 -5°C° 0.1 mm 2 mps 744 mmHg 96%
    02:00 -5°C° 0.1 mm 2 mps 744 mmHg 96%
    03:00 -3°C° 0.1 mm 1 mps 744 mmHg 96%
    04:00 -4°C° 0 mm 1 mps 744 mmHg 96%
    05:00 -4°C° 0 mm 1 mps 744 mmHg 96%
    06:00 -6°C° 0 mm 1 mps 744 mmHg 96%
    07:00 -4°C° 0.2 mm 1 mps 744 mmHg 96%
    08:00 -4°C° 0.2 mm 1 mps 744 mmHg 96%
    09:00 -5°C° 0.2 mm 0 mps 744 mmHg 97%
    10:00 -3°C° 0.2 mm 1 mps 743 mmHg 96%
    11:00 -3°C° 0.2 mm 1 mps 743 mmHg 96%
    12:00 -2°C° 0.2 mm 1 mps 743 mmHg 95%
    13:00 -3°C° 0.4 mm 1 mps 743 mmHg 96%
    14:00 -5°C° 0.4 mm 2 mps 742 mmHg 96%
    15:00 -5°C° 0.4 mm 2 mps 742 mmHg 96%
    16:00 -6°C° 0.4 mm 2 mps 743 mmHg 96%
    17:00 -6°C° 0.4 mm 2 mps 743 mmHg 96%
    18:00 -7°C° 0.4 mm 2 mps 743 mmHg 96%
    19:00 -8°C° 0.1 mm 2 mps 744 mmHg 96%
    20:00 -9°C° 0.1 mm 2 mps 744 mmHg 96%
    21:00 -10°C° 0.1 mm 2 mps 745 mmHg 96%
    22:00 -10°C° 0 mm 2 mps 746 mmHg 95%
    23:00 -12°C° 0 mm 2 mps 746 mmHg 95%

    26 January, Sunday

    Time Temperature Precipitation Wind Pressure Humidity
    00:00 -13°C° 0 mm 2 mps 747 mmHg 94%
    01:00 -14°C° 0 mm 2 mps 747 mmHg 94%
    02:00 -14°C° 0 mm 2 mps 747 mmHg 95%
    03:00 -14°C° 0 mm 2 mps 747 mmHg 95%
    04:00 -16°C° 0 mm 2 mps 747 mmHg 96%
    05:00 -17°C° 0 mm 2 mps 748 mmHg 97%
    06:00 -19°C° 0 mm 2 mps 748 mmHg 97%
    07:00 -19°C° 0 mm 2 mps 748 mmHg 97%
    08:00 -20°C° 0 mm 2 mps 748 mmHg 97%
    09:00 -20°C° 0 mm 2 mps 748 mmHg 97%
    10:00 -17°C° 0 mm 1 mps 748 mmHg 96%
    11:00 -16°C° 0 mm 1 mps 748 mmHg 94%
    12:00 -15°C° 0 mm 1 mps 749 mmHg 93%
    13:00 -17°C° 0 mm 2 mps 749 mmHg 93%
    14:00 -16°C° 0 mm 2 mps 749 mmHg 94%
    15:00 -16°C° 0 mm 2 mps 749 mmHg 94%
    16:00 -17°C° 0 mm 2 mps 749 mmHg 95%
    17:00 -18°C° 0 mm 2 mps 750 mmHg 95%
    18:00 -19°C° 0 mm 2 mps 750 mmHg 96%
    19:00 -20°C° 0 mm 2 mps 750 mmHg 96%
    20:00 -21°C° 0 mm 2 mps 751 mmHg 96%
    21:00 -24°C° 0 mm 3 mps 751 mmHg 96%
    22:00 -24°C° 0 mm 3 mps 751 mmHg 95%
    23:00 -24°C° 0 mm 3 mps 751 mmHg 95%
    Show more